STARLINK-30263 (57642 NORAD) Tracking and Keplerian Element Data

This shows tracking and keplerian element data for the satellite.

Feedback or suggestion? Click here.




ElementValue
Catalog57642
NameSTARLINK-30263
Epoch Orbit279
Epoch Day238.91667824
Epoch Year2023
RAAN95.926
Inclination43.0006
Eccentricity0.0001271
Argument of Perigee267.6887
Mean Anonmoly156.8372
Mean Motion15.86065122
Decay Rate-0.0089244
L11 57642U 23122L 23238.91667824 -.00892440 00000+0 -38606-2 0 9998
L22 57642 43.0006 95.9260 0001271 267.6887 156.8372 15.86065122 2791



Live tracking and technical data element details for STARLINK-30263 (NORAD 57642). STARLINK-30263 can be tracked NOW for your location showing map with azimuth and elevation plus other details from your city location.







IsCatalogInMostPopularTable: catalog: 57642, numindb: 6
Update: records affected: 1



GetName: 57642 STARLINK-30263

Hit Count: updated at: Tue, 26 Sep 2023 13:32:45 GMT